[[{"header":{"parameterUnit":"m.s-1","parameterCategory":2,"la1":30.2991,"la2":30.254,"lo1":-89.0895,"lo2":-89.0444,"dy":0.0017,"dx":0.0017,"nx":28,"ny":28,"refTime":"2023-09-29T03:00:00:Z","depth":"0","parameterNumber":2,"parameterNumberName":"U-component_of_CURRENTS"},"data":[0,0,0,0,0,0,0,0,0,0,0,0,0,0,0,0,0,0,0,0,0,0,0,0,0,0,0,0,0,0,0,0,0,0,0,0,0,0,0,0,0,0,0,0,0,0,0,0,0,0,0,0,0,0,0,0,0,0,0.2238,0.2238,0,0.2237,0.2237,0.2237,0.2229,0.2229,0.2229,0.2229,0.2208,0.2207,0.2207,0,0,0,0,0,0,0,0,0,0,0,0,0,0.2235,0.2235,0.2238,0.2238,0.2238,0.2237,0.2237,0.2237,0.2229,0.2229,0.2229,0.2229,0.2208,0.2207,0.2207,0,0,0,0,0,0,0,0,0,0,0,0,0,0.2234,0.2235,0.2238,0.2235,0.2235,0.2237,0.2237,0.2237,0.2229,0.2229,0.2229,0.2229,0.2208,0.2207,0.2207,0.2203,0,0,0.2204,0.2204,0,0,0,0,0,0,0,0,0.2234,0.2234,0.2236,0.2236,0.2235,0.2235,0.2228,0.2225,0.2229,0.223,0.2229,0.2229,0.2216,0.2215,0.2212,0.2202,0.2201,0.2204,0.2204,0.2203,0.2203,0,0,0,0,0,0,0,0.2234,0.2234,0.2236,0.2236,0.2236,0.2236,0.2235,0.2228,0.2221,0.223,0.223,0.2232,0.2216,0.2213,0.2212,0.22,0.2204,0.2203,0.2203,0.2203,0.2219,0.222,0,0,0,0,0,0,0.2237,0.2234,0.2236,0.2236,0.2237,0.2236,0.2235,0.2234,0.2222,0.2221,0.2232,0.2232,0.2215,0.2213,0.2211,0.2232,0.2203,0.2203,0.2202,0.2218,0.2219,0.222,0,0,0,0,0,0,0.2237,0.2237,0.2236,0.2236,0.2236,0.2236,0.2234,0.2234,0.2237,0.2225,0.2223,0.2237,0.2215,0.2212,0.2215,0.2231,0.2202,0.2201,0.2217,0.2218,0.222,0.2258,0,0,0,0,0,0,0.2237,0.2237,0.2238,0.2237,0.2237,0.2244,0.2235,0.2234,0.224,0.2239,0.2228,0.2226,0.2214,0.2217,0.2215,0.2229,0.2201,0.2216,0.2218,0.2219,0.2256,0.226,0.2265,0,0,0,0,0,0.2237,0.2237,0.2237,0.2238,0.2237,0.2245,0.2245,0.2243,0.224,0.2245,0.224,0.2226,0.2226,0.2217,0.2214,0.2228,0.2215,0.2217,0.2219,0.2253,0.2259,0.2265,0,0,0,0,0,0,0.2234,0.2237,0.2237,0.2237,0.2245,0.2245,0.2249,0.2248,0.2248,0.2247,0.2234,0.2232,0.2242,0.2231,0.2221,0.224,0.222,0.2222,0.2247,0.2253,0.2257,0.2263,0.22,0,0,0,0,0,0.2235,0.2236,0.2242,0.2243,0.2249,0.225,0.2254,0.2254,0.2254,0.2254,0.2247,0.2243,0.2248,0.2246,0.2244,0.2251,0.2261,0.226,0.2265,0.2269,0.2273,0.2305,0.2313,0.2227,0.2227,0.2227,0,0,0.2233,0.2236,0.2236,0.2243,0.2248,0.2258,0.2252,0.2261,0.2269,0.2252,0.2258,0.2258,0.2254,0.2264,0.2268,0.2257,0.2302,0.2271,0.2275,0.2277,0.2308,0.2317,0.2324,0.2228,0.2228,0.2228,0,0,0.2233,0.2236,0.2239,0.2248,0.226,0.2265,0.2271,0.2276,0.228,0.2288,0.2283,0.2294,0.2289,0.2296,0.2297,0.2326,0.2326,0.2326,0.2351,0.2383,0.239,0.2397,0.2434,0.2443,0.2327,0.2327,0.2327,0,0.2232,0.2235,0.2242,0.2251,0.2261,0.2271,0.2281,0.229,0.2294,0.2305,0.2295,0.2313,0.2306,0.2333,0.2343,0.2337,0.2357,0.2329,0.2389,0.2396,0.2402,0.2438,0.2448,0.2329,0.2329,0.2328,0.2328,0,0.2235,0.2241,0.2247,0.2262,0.2274,0.2286,0.2303,0.2315,0.2322,0.2332,0.2358,0.2356,0.237,0.2371,0.2364,0.2407,0.2409,0.2393,0.2375,0.2413,0.2449,0.2459,0.2332,0.2331,0.233,0.233,0,0,0.2217,0.2244,0.2244,0.2257,0.2282,0.2292,0.2316,0.2343,0.2372,0.2375,0.2409,0.2417,0.2424,0.2428,0.2427,0.2449,0.2511,0.2441,0.2442,0.2479,0.2593,0.258,0.259,0.2507,0.2509,0.251,0.2605,0,0.2217,0.2236,0.225,0.2272,0.2285,0.231,0.2335,0.2362,0.2391,0.2427,0.2438,0.2469,0.2445,0.2463,0.2482,0.2508,0.2537,0.2488,0.255,0.2552,0.2536,0.26,0.2492,0.2566,0.2615,0.2616,0.2617,0,0.2208,0.2226,0.2242,0.2284,0.2293,0.2308,0.2361,0.239,0.2447,0.2473,0.2507,0.2523,0.2565,0.2535,0.2599,0.2571,0.2587,0.2599,0.2603,0.2583,0.2558,0.2534,0.2582,0.2534,0.2632,0.2631,0.263,0,0.2181,0.2218,0.2231,0.2243,0.229,0.2305,0.2339,0.2398,0.2429,0.2511,0.2538,0.2595,0.2624,0.2653,0.2679,0.2649,0.275,0.2711,0.2715,0.2714,0.263,0.2619,0.2636,0.2757,0.2757,0.2756,0.2756,0,0.2166,0.2177,0.222,0.2224,0.2251,0.2297,0.2337,0.2387,0.2457,0.2508,0.2558,0.2605,0.2655,0.2709,0.272,0.2762,0.2787,0.274,0.2744,0.2641,0.2631,0.2589,0.2552,0.276,0.2759,0.2758,0.2758,0,0.2122,0.2149,0.2166,0.2215,0.223,0.225,0.2314,0.235,0.243,0.2499,0.2526,0.2627,0.2719,0.2765,0.2841,0.2817,0.2781,0.286,0.2745,0.2733,0.2668,0.2636,0.2552,0.2469,0.2881,0.2881,0.2881,0,0.2097,0.2102,0.2141,0.2149,0.2166,0.2205,0.2229,0.2317,0.2363,0.2509,0.2535,0.2659,0.2733,0.2845,0.2862,0.2907,0.2805,0.2813,0.2727,0.2672,0.264,0.2519,0.2445,0.2637,0.2635,0.2634,0.2633,0,0.2054,0.2065,0.2079,0.2096,0.2113,0.2138,0.219,0.222,0.2343,0.24,0.251,0.2591,0.2733,0.2751,0.2828,0.2831,0.2673,0.2785,0.2751,0.2478,0.2323,0.2242,0.2579,0.262,0.2622,0.2622,0.2623,0.2624,0.2017,0.2012,0.2029,0.2037,0.2056,0.2071,0.2067,0.214,0.2195,0.2282,0.2423,0.2498,0.2606,0.2705,0.2699,0.2641,0.2607,0.2552,0.2531,0.2425,0.2294,0.2616,0.2644,0.2646,0.2647,0.2648,0.2649,0,0.1964,0.1965,0.1974,0.1969,0.1954,0.1993,0.2031,0.2017,0.2046,0.2169,0.2242,0.2356,0.2398,0.2472,0.249,0.2401,0.2255,0.2337,0.2135,0.2084,0.2403,0.2344,0.2278,0.2278,0.2279,0.2279,0.2279,0.2279,0.1938,0.1915,0.1912,0.1862,0.1861,0.1813,0.1815,0.1822,0.1878,0.1938,0.2003,0.2104,0.2288,0.2343,0.2301,0.2236,0.2047,0.1946,0.1945,0.2181,0.2198,0.2215,0.2152,0.2048,0.2047,0.1521,0.1517,0.1514]},{"header":{"parameterUnit":"m.s-1","parameterCategory":2,"la1":30.2991,"la2":30.254,"lo1":-89.0895,"lo2":-89.0444,"dy":0.0017,"dx":0.0017,"nx":28,"ny":28,"refTime":"2023-09-29T03:00:00:Z","depth":"0","parameterNumber":3,"parameterNumberName":"V-component_of_CURRENTS"},"data":[0,0,0,0,0,0,0,0,0,0,0,0,0,0,0,0,0,0,0,0,0,0,0,0,0,0,0,0,0,0,0,0,0,0,0,0,0,0,0,0,0,0,0,0,0,0,0,0,0,0,0,0,0,0,0,0,0,0,-0.0047,-0.0047,0,-0.0106,-0.0106,-0.0107,-0.0143,-0.0143,-0.0143,-0.0143,-0.0215,-0.0217,-0.0219,0,0,0,0,0,0,0,0,0,0,0,0,0,-0.0011,-0.0011,-0.0047,-0.0047,-0.0048,-0.0106,-0.0106,-0.0107,-0.0143,-0.0143,-0.0143,-0.0143,-0.0214,-0.0217,-0.0219,0,0,0,0,0,0,0,0,0,0,0,0,0,-0.0045,-0.0011,-0.0047,-0.0072,-0.0074,-0.0105,-0.0107,-0.0108,-0.0142,-0.0143,-0.0143,-0.0143,-0.0214,-0.0216,-0.0219,-0.0235,0,0,-0.0228,-0.0229,0,0,0,0,0,0,0,0,-0.0043,-0.0046,-0.0067,-0.007,-0.0073,-0.0116,-0.012,-0.0151,-0.0142,-0.0118,-0.0143,-0.0143,-0.0182,-0.0187,-0.02,-0.0239,-0.0242,-0.0228,-0.023,-0.0231,-0.0232,0,0,0,0,0,0,0,-0.004,-0.0044,-0.0072,-0.0068,-0.0071,-0.0095,-0.01,-0.0126,-0.015,-0.012,-0.0123,-0.0127,-0.0184,-0.0197,-0.0202,-0.0243,-0.0228,-0.023,-0.0232,-0.0233,-0.0287,-0.0287,0,0,0,0,0,0,-0.0028,-0.0042,-0.007,-0.0073,-0.0056,-0.0096,-0.0101,-0.0103,-0.015,-0.0156,-0.0127,-0.0128,-0.0192,-0.0199,-0.0205,-0.0214,-0.0231,-0.0234,-0.0235,-0.0288,-0.0287,-0.0287,0,0,0,0,0,0,-0.0027,-0.003,-0.0067,-0.0058,-0.0064,-0.0096,-0.0098,-0.0104,-0.0114,-0.0154,-0.0162,-0.013,-0.0193,-0.0201,-0.0222,-0.0218,-0.0235,-0.0237,-0.0288,-0.0287,-0.0287,-0.0242,0,0,0,0,0,0,-0.0026,-0.0029,-0.0027,-0.0057,-0.0064,-0.0079,-0.0098,-0.0105,-0.0116,-0.0119,-0.0159,-0.0167,-0.0193,-0.0217,-0.0224,-0.0222,-0.024,-0.0288,-0.0288,-0.0287,-0.0243,-0.024,-0.0236,0,0,0,0,0,-0.0024,-0.0019,-0.0026,-0.003,-0.0059,-0.0079,-0.0085,-0.0109,-0.0116,-0.0118,-0.0144,-0.0165,-0.0219,-0.0219,-0.0228,-0.0226,-0.0288,-0.0288,-0.0287,-0.0245,-0.024,-0.0237,0,0,0,0,0,0,-0.0004,-0.0023,-0.0031,-0.0032,-0.0051,-0.0084,-0.0087,-0.0103,-0.0126,-0.0126,-0.0164,-0.0173,-0.0189,-0.0213,-0.0212,-0.024,-0.0257,-0.0258,-0.0222,-0.0218,-0.0214,-0.0196,-0.0242,0,0,0,0,0,0.0004,0.0004,-0.002,-0.0021,-0.0027,-0.0055,-0.0066,-0.0081,-0.0105,-0.0115,-0.0143,-0.0171,-0.0194,-0.0209,-0.0234,-0.0251,-0.0272,-0.0254,-0.0251,-0.0248,-0.0238,-0.0268,-0.0267,-0.0285,-0.0285,-0.0285,0,0,0.0011,0.0001,0.0,-0.0016,-0.0032,-0.0035,-0.0062,-0.0072,-0.0075,-0.0119,-0.0131,-0.0159,-0.0195,-0.0213,-0.0222,-0.0232,-0.0254,-0.0247,-0.0244,-0.0236,-0.0268,-0.0266,-0.0264,-0.0285,-0.0285,-0.0285,0,0,0.0029,0.0019,0.0027,0.0016,-0.0001,-0.0018,-0.0016,-0.0044,-0.0057,-0.0074,-0.0103,-0.0127,-0.0165,-0.0191,-0.0208,-0.0201,-0.0232,-0.0208,-0.018,-0.0209,-0.0207,-0.0206,-0.0229,-0.0231,-0.0209,-0.0209,-0.0208,0,0.0039,0.0045,0.0025,0.003,0.0027,-0.0004,0.0004,-0.0014,-0.0046,-0.0053,-0.0069,-0.0121,-0.0155,-0.0175,-0.0173,-0.0193,-0.0211,-0.0192,-0.0204,-0.0203,-0.0203,-0.0227,-0.0229,-0.0206,-0.0207,-0.0207,-0.0207,0,0.0062,0.0066,0.0071,0.0069,0.0063,0.0064,0.0042,0.0034,0.0016,-0.0007,-0.0029,-0.0076,-0.0106,-0.0123,-0.0148,-0.0161,-0.0174,-0.0194,-0.0212,-0.0198,-0.0225,-0.0228,-0.0203,-0.0204,-0.0205,-0.0205,0,0,0.0089,0.0088,0.009,0.0099,0.0086,0.0085,0.0085,0.0074,0.0079,0.0038,0.0037,-0.0015,-0.0041,-0.0062,-0.0099,-0.0127,-0.0147,-0.0154,-0.0157,-0.0173,-0.0204,-0.0197,-0.02,-0.0168,-0.0169,-0.0169,-0.0223,0,0.0114,0.0136,0.0127,0.0148,0.0159,0.0138,0.0144,0.013,0.011,0.0099,0.0046,0.0028,-0.0018,-0.0029,-0.0065,-0.0122,-0.0153,-0.013,-0.0219,-0.0221,-0.0213,-0.0202,-0.0161,-0.0204,-0.0226,-0.0226,-0.0227,0,0.0145,0.0156,0.0185,0.0196,0.02,0.0209,0.0219,0.0216,0.0192,0.0178,0.0146,0.0103,0.0058,0.0016,-0.0076,-0.0057,-0.0123,-0.0174,-0.0177,-0.0186,-0.0219,-0.0222,-0.0209,-0.0318,-0.0232,-0.0232,-0.0231,0,0.0185,0.0198,0.0226,0.0229,0.0236,0.025,0.0253,0.0244,0.0255,0.0229,0.0233,0.0165,0.0142,0.005,-0.0053,-0.0065,-0.0151,-0.0188,-0.0245,-0.0246,-0.0235,-0.0234,-0.0333,-0.0255,-0.0254,-0.0254,-0.0254,0,0.0221,0.0241,0.0249,0.0266,0.0304,0.0293,0.033,0.0325,0.0327,0.0355,0.0278,0.0289,0.0151,0.0083,-0.0026,-0.0132,-0.0134,-0.0232,-0.0256,-0.0218,-0.0214,-0.0329,-0.0401,-0.0256,-0.0256,-0.0256,-0.0255,0,0.0261,0.0264,0.0297,0.0315,0.0327,0.0355,0.0389,0.0415,0.0409,0.0445,0.0443,0.0384,0.0304,0.0163,0.0022,-0.0083,-0.0257,-0.0238,-0.0178,-0.0194,-0.0352,-0.0423,-0.0543,-0.0606,-0.0314,-0.0314,-0.0315,0,0.0283,0.0307,0.0341,0.0369,0.0381,0.042,0.0454,0.0462,0.0499,0.0516,0.0544,0.0477,0.0458,0.0251,0.006,-0.0125,-0.0251,-0.0224,-0.0248,-0.0347,-0.0445,-0.0494,-0.0542,-0.0222,-0.0221,-0.0221,-0.022,0,0.0326,0.0339,0.0366,0.0426,0.0468,0.0515,0.0567,0.0611,0.0634,0.0675,0.0721,0.0707,0.0524,0.0361,0.0103,-0.0028,-0.0293,-0.0219,-0.0341,-0.0391,-0.0432,-0.0506,-0.0203,-0.0215,-0.0216,-0.0216,-0.0216,-0.0217,0.0361,0.0386,0.0427,0.0483,0.0534,0.0605,0.0654,0.0723,0.0803,0.0873,0.0862,0.0876,0.0634,0.0297,0.0097,-0.0234,-0.0271,-0.0341,-0.0421,-0.0464,-0.0513,-0.0191,-0.0219,-0.022,-0.022,-0.022,-0.0221,0,0.0399,0.0429,0.0482,0.0546,0.0606,0.0628,0.0726,0.0785,0.0895,0.0978,0.1027,0.0944,0.0647,0.032,-0.0123,-0.0381,-0.0488,-0.0533,-0.06,-0.0645,-0.0368,-0.0352,-0.0385,-0.0385,-0.0385,-0.0385,-0.0385,-0.0385,0.0422,0.0473,0.0496,0.0595,0.0643,0.0729,0.0787,0.0885,0.097,0.1075,0.1108,0.1112,0.089,0.0106,-0.0457,-0.06,-0.0794,-0.0827,-0.0961,-0.0775,-0.0763,-0.0752,-0.0753,-0.087,-0.0871,-0.1182,-0.1185,-0.1187]}],[{"header":{"parameterUnit":"m.s-1","parameterCategory":2,"la1":30.2991,"la2":30.254,"lo1":-89.0895,"lo2":-89.0444,"dy":0.0017,"dx":0.0017,"nx":28,"ny":28,"refTime":"2023-09-29T03:00:00:Z","depth":"2","parameterNumber":2,"parameterNumberName":"U-component_of_CURRENTS"},"data":[0,0,0,0,0,0,0,0,0,0,0,0,0,0,0,0,0,0,0,0,0,0,0,0,0,0,0,0,0,0,0,0,0,0,0,0,0,0,0,0,0,0,0,0,0,0,0,0,0,0,0,0,0,0,0,0,0,0,0.2153,0.2153,0,0.2153,0.2153,0.2152,0.215,0.215,0.215,0.215,0.2143,0.2142,0.2142,0,0,0,0,0,0,0,0,0,0,0,0,0,0.2149,0.2148,0.2153,0.2153,0.2153,0.2153,0.2153,0.2152,0.215,0.215,0.215,0.215,0.2143,0.2142,0.2142,0,0,0,0,0,0,0,0,0,0,0,0,0,0.2148,0.2148,0.2153,0.2153,0.2153,0.2153,0.2153,0.2152,0.215,0.215,0.215,0.215,0.2143,0.2142,0.2142,0.2137,0,0,0.2141,0.2141,0,0,0,0,0,0,0,0,0.2148,0.2148,0.2153,0.2153,0.2153,0.2153,0.2148,0.2147,0.215,0.2149,0.215,0.215,0.2146,0.2146,0.2143,0.2136,0.2136,0.2141,0.214,0.214,0.214,0,0,0,0,0,0,0,0.2148,0.2148,0.2151,0.2153,0.2153,0.2153,0.2152,0.2148,0.2146,0.2149,0.2149,0.2152,0.2146,0.2143,0.2143,0.2136,0.2141,0.214,0.214,0.214,0.2167,0.2168,0,0,0,0,0,0,0.2151,0.2148,0.2151,0.2151,0.2153,0.2153,0.2152,0.2151,0.2146,0.2146,0.2152,0.2152,0.2144,0.2143,0.2143,0.2172,0.214,0.214,0.214,0.2166,0.2168,0.2169,0,0,0,0,0,0,0.2151,0.2152,0.2151,0.2151,0.2151,0.2153,0.2152,0.2151,0.2159,0.2148,0.2148,0.2161,0.2144,0.2143,0.2152,0.217,0.214,0.2139,0.2165,0.2167,0.2168,0.2208,0,0,0,0,0,0,0.2151,0.2151,0.2155,0.2151,0.2151,0.216,0.2152,0.2151,0.2161,0.2161,0.2156,0.2155,0.2144,0.2153,0.2152,0.2169,0.2139,0.2164,0.2166,0.2168,0.2205,0.2211,0.2215,0,0,0,0,0,0.2151,0.2153,0.2155,0.2155,0.2155,0.2161,0.2161,0.2161,0.2161,0.2168,0.2167,0.2155,0.2164,0.2154,0.2152,0.217,0.2163,0.2165,0.2168,0.2203,0.221,0.2215,0,0,0,0,0,0,0.2152,0.2153,0.2155,0.2157,0.2164,0.2162,0.2168,0.2169,0.2173,0.2175,0.2164,0.2163,0.218,0.217,0.2158,0.2184,0.2163,0.2165,0.2191,0.2197,0.2202,0.2208,0.2139,0,0,0,0,0,0.2154,0.2157,0.2161,0.2165,0.217,0.2171,0.2175,0.2177,0.2179,0.2182,0.2178,0.2179,0.2186,0.2188,0.2188,0.2199,0.2207,0.2211,0.2216,0.222,0.2225,0.2254,0.2262,0.2176,0.2176,0.2176,0,0,0.2154,0.2157,0.2158,0.2166,0.217,0.2179,0.2174,0.2185,0.2195,0.218,0.2193,0.2195,0.2193,0.2208,0.2214,0.2203,0.2251,0.2223,0.2226,0.2229,0.2257,0.2265,0.2272,0.2178,0.2177,0.2177,0,0,0.2157,0.2162,0.2166,0.2175,0.2188,0.2191,0.2198,0.2204,0.2211,0.2224,0.2221,0.2236,0.2236,0.2243,0.2246,0.2278,0.2277,0.228,0.2307,0.2335,0.2343,0.2349,0.2381,0.239,0.2281,0.2281,0.2281,0,0.2159,0.2164,0.217,0.218,0.2189,0.2199,0.221,0.222,0.2228,0.224,0.2234,0.2257,0.2254,0.2282,0.2295,0.2289,0.2307,0.2284,0.2342,0.2348,0.2354,0.2385,0.2395,0.2283,0.2283,0.2283,0.2283,0,0.2164,0.2173,0.2179,0.2194,0.2206,0.2218,0.2234,0.225,0.2261,0.2271,0.2302,0.2303,0.232,0.2323,0.2318,0.2362,0.2362,0.2346,0.2327,0.2365,0.2396,0.2405,0.2287,0.2286,0.2285,0.2285,0,0,0.2151,0.2178,0.2179,0.2192,0.2216,0.2225,0.2252,0.2278,0.2308,0.2317,0.2352,0.2366,0.2376,0.2381,0.2381,0.2403,0.2463,0.2396,0.2397,0.2428,0.2536,0.2506,0.2513,0.2459,0.246,0.2461,0.2544,0,0.2154,0.2173,0.2186,0.2209,0.2222,0.2246,0.2271,0.23,0.233,0.2368,0.2382,0.2416,0.2396,0.2417,0.2435,0.246,0.2487,0.2442,0.2494,0.2495,0.2464,0.2522,0.2304,0.2357,0.2553,0.2554,0.2555,0,0.2147,0.2165,0.2183,0.2223,0.2232,0.2248,0.23,0.233,0.2387,0.2414,0.245,0.2468,0.2512,0.2486,0.2545,0.2521,0.2534,0.2545,0.2548,0.2511,0.2482,0.2348,0.2365,0.257,0.2569,0.2568,0.2567,0,0.2124,0.2161,0.2175,0.2186,0.2231,0.2249,0.2283,0.234,0.2372,0.2454,0.2482,0.2537,0.2569,0.2595,0.2618,0.2593,0.2681,0.2646,0.2631,0.2629,0.2449,0.2428,0.2688,0.2688,0.2688,0.2687,0.2687,0,0.2111,0.2124,0.2167,0.2172,0.22,0.2245,0.2286,0.2335,0.2404,0.2452,0.2505,0.2547,0.2598,0.2645,0.2655,0.2682,0.2714,0.2654,0.2654,0.2458,0.2439,0.2619,0.2609,0.269,0.269,0.2689,0.2689,0,0.2071,0.2099,0.2117,0.2167,0.2182,0.2205,0.2268,0.2304,0.2383,0.2449,0.2476,0.257,0.2649,0.2689,0.2756,0.2728,0.2758,0.2754,0.2529,0.2501,0.2678,0.2671,0.2752,0.2752,0.2751,0.2751,0.2751,0,0.205,0.2056,0.2097,0.2106,0.2125,0.2166,0.219,0.2277,0.2319,0.2456,0.2479,0.2591,0.2643,0.2732,0.2731,0.2759,0.2785,0.2558,0.2464,0.2696,0.2688,0.268,0.2673,0.2244,0.224,0.2236,0.2234,0,0.2011,0.2025,0.204,0.2059,0.2078,0.2102,0.2154,0.218,0.2296,0.2345,0.2436,0.2497,0.2605,0.2541,0.2593,0.2574,0.2537,0.2489,0.2791,0.2267,0.2225,0.2215,0.2222,0.2202,0.2205,0.2208,0.2209,0.2211,0.1979,0.1977,0.1995,0.2004,0.2024,0.2036,0.2031,0.2092,0.2136,0.2198,0.2322,0.2327,0.2373,0.2343,0.229,0.2252,0.2427,0.2291,0.2298,0.231,0.2242,0.2202,0.2163,0.2166,0.2168,0.217,0.2172,0,0.193,0.1933,0.1943,0.194,0.1924,0.1965,0.1994,0.1966,0.1975,0.2051,0.2093,0.1949,0.192,0.1963,0.1864,0.1883,0.1828,0.1797,0.1686,0.1721,0.1751,0.165,0.1416,0.1413,0.1411,0.1409,0,0,0.1905,0.1884,0.1881,0.1831,0.1833,0.1784,0.1781,0.1758,0.1772,0.1735,0.171,0.1834,0.1908,0.1624,0.1606,0.1486,0.1584,0.1431,0.2045,0.195,0.1976,0.2055,0.1942,0,0,0,0,0]},{"header":{"parameterUnit":"m.s-1","parameterCategory":2,"la1":30.2991,"la2":30.254,"lo1":-89.0895,"lo2":-89.0444,"dy":0.0017,"dx":0.0017,"nx":28,"ny":28,"refTime":"2023-09-29T03:00:00:Z","depth":"2","parameterNumber":3,"parameterNumberName":"V-component_of_CURRENTS"},"data":[0,0,0,0,0,0,0,0,0,0,0,0,0,0,0,0,0,0,0,0,0,0,0,0,0,0,0,0,0,0,0,0,0,0,0,0,0,0,0,0,0,0,0,0,0,0,0,0,0,0,0,0,0,0,0,0,0,0,0.0088,0.0088,0,0.0039,0.0038,0.0038,0.0005,0.0005,0.0005,0.0005,-0.0063,-0.0065,-0.0066,0,0,0,0,0,0,0,0,0,0,0,0,0,0.0116,0.0116,0.0088,0.0088,0.0087,0.0039,0.0038,0.0037,0.0005,0.0005,0.0005,0.0005,-0.0063,-0.0065,-0.0067,0,0,0,0,0,0,0,0,0,0,0,0,0,0.0088,0.0116,0.0088,0.0066,0.0063,0.0039,0.0038,0.0037,0.0005,0.0005,0.0005,0.0005,-0.0062,-0.0064,-0.0067,-0.0079,0,0,-0.0075,-0.0076,0,0,0,0,0,0,0,0,0.009,0.0087,0.007,0.0067,0.0065,0.0029,0.0023,-0.0002,0.0005,0.0026,0.0005,0.0005,-0.0033,-0.0038,-0.0048,-0.0082,-0.0085,-0.0075,-0.0076,-0.0077,-0.0078,0,0,0,0,0,0,0,0.0092,0.0089,0.0068,0.0069,0.0066,0.0045,0.0041,0.0018,-0.0003,0.0024,0.0022,0.0018,-0.0035,-0.0046,-0.005,-0.0086,-0.0075,-0.0077,-0.0079,-0.008,-0.0131,-0.013,0,0,0,0,0,0,0.0102,0.0091,0.0069,0.0066,0.0078,0.0045,0.0041,0.004,-0.0002,-0.0009,0.0019,0.0017,-0.0041,-0.0047,-0.0053,-0.0063,-0.0077,-0.008,-0.0081,-0.0131,-0.0131,-0.013,0,0,0,0,0,0,0.0103,0.0101,0.0071,0.0078,0.0073,0.0045,0.0044,0.0039,0.0029,-0.0006,-0.0013,0.0014,-0.0042,-0.0049,-0.0069,-0.0066,-0.0081,-0.0083,-0.0131,-0.0131,-0.013,-0.0089,0,0,0,0,0,0,0.0104,0.0101,0.0103,0.0079,0.0073,0.0061,0.0044,0.0038,0.0027,0.0025,-0.0013,-0.0019,-0.0042,-0.0065,-0.0071,-0.007,-0.0085,-0.0131,-0.0131,-0.0131,-0.009,-0.0087,-0.0084,0,0,0,0,0,0.0105,0.011,0.0104,0.0101,0.0077,0.0062,0.0057,0.0035,0.0027,0.0025,0.0002,-0.0018,-0.0067,-0.0066,-0.0074,-0.0074,-0.0131,-0.0131,-0.0131,-0.0092,-0.0088,-0.0084,0,0,0,0,0,0,0.0121,0.0107,0.0099,0.0099,0.0084,0.0057,0.0053,0.0039,0.0018,0.0017,-0.0017,-0.0025,-0.0041,-0.0062,-0.0061,-0.0087,-0.0102,-0.0104,-0.007,-0.0067,-0.0064,-0.0047,-0.0087,0,0,0,0,0,0.0127,0.0128,0.0109,0.0109,0.0104,0.0079,0.007,0.0057,0.0036,0.0027,0.0001,-0.0025,-0.0046,-0.0059,-0.0081,-0.0097,-0.0117,-0.0102,-0.0099,-0.0096,-0.0088,-0.0115,-0.0114,-0.0129,-0.0129,-0.0129,0,0,0.0133,0.0126,0.0125,0.0112,0.0099,0.0098,0.0073,0.0064,0.0063,0.0023,0.0012,-0.0015,-0.0047,-0.0062,-0.0072,-0.0081,-0.0103,-0.0096,-0.0093,-0.0086,-0.0115,-0.0113,-0.0112,-0.0129,-0.0129,-0.0129,0,0,0.0149,0.014,0.0148,0.0139,0.0125,0.0111,0.0112,0.0087,0.0076,0.0061,0.0035,0.0012,-0.0024,-0.0045,-0.006,-0.0054,-0.0084,-0.0062,-0.0036,-0.0063,-0.0062,-0.0061,-0.0085,-0.0087,-0.0063,-0.0063,-0.0062,0,0.0157,0.0164,0.0146,0.0152,0.015,0.0122,0.0131,0.0115,0.0087,0.0082,0.0064,0.0017,-0.0014,-0.0029,-0.0029,-0.0047,-0.0065,-0.0047,-0.0059,-0.0058,-0.0058,-0.0083,-0.0086,-0.006,-0.0061,-0.0061,-0.0061,0,0.0178,0.0183,0.0187,0.0188,0.0184,0.0185,0.0167,0.016,0.0141,0.0123,0.0102,0.0058,0.0031,0.0014,-0.0007,-0.0019,-0.0033,-0.005,-0.0066,-0.0054,-0.0081,-0.0085,-0.0058,-0.0058,-0.0059,-0.0059,0,0,0.0201,0.0203,0.0205,0.0214,0.0205,0.0206,0.0207,0.02,0.0206,0.0166,0.0166,0.0118,0.0092,0.0073,0.0039,0.0013,-0.0009,-0.0014,-0.0016,-0.0033,-0.0065,-0.0061,-0.0064,-0.0027,-0.0028,-0.0028,-0.0084,0,0.0225,0.0247,0.0241,0.0263,0.0274,0.0256,0.0264,0.0254,0.0235,0.0226,0.0177,0.016,0.0115,0.0103,0.0069,0.0016,-0.0015,0.0008,-0.0077,-0.0079,-0.0074,-0.0067,-0.0032,-0.0078,-0.0088,-0.0088,-0.0089,0,0.0253,0.0265,0.0294,0.0309,0.0313,0.0323,0.0335,0.0335,0.0315,0.0302,0.0271,0.0231,0.0188,0.0146,0.0058,0.0077,0.0011,-0.0036,-0.004,-0.0051,-0.0081,-0.0092,-0.0084,-0.0094,-0.0094,-0.0094,-0.0093,0,0.0289,0.0305,0.0332,0.0336,0.0346,0.036,0.0365,0.036,0.0374,0.035,0.0353,0.029,0.0267,0.0179,0.0078,0.0066,-0.0016,-0.0049,-0.011,-0.0111,-0.0105,-0.0104,-0.0116,-0.0116,-0.0116,-0.0116,-0.0115,0,0.0322,0.0342,0.0352,0.0368,0.0406,0.0399,0.0436,0.0433,0.0438,0.0468,0.0395,0.0405,0.0274,0.0209,0.0104,-0.0001,-0.0001,-0.0099,-0.0123,-0.0089,-0.0086,-0.0119,-0.0119,-0.0118,-0.0117,-0.0117,-0.0116,0,0.0357,0.0362,0.0395,0.0414,0.0427,0.0454,0.049,0.0517,0.0513,0.0549,0.0546,0.0492,0.0413,0.0279,0.0144,0.0044,-0.0067,-0.0109,-0.0057,-0.0073,-0.0155,-0.0152,-0.0188,-0.0189,-0.0189,-0.0189,-0.0189,0,0.0376,0.0399,0.0435,0.0462,0.0473,0.0511,0.0547,0.0558,0.0596,0.0614,0.0643,0.0575,0.0552,0.0353,0.017,-0.0011,-0.0051,-0.0109,-0.0131,-0.0142,-0.0161,-0.0158,-0.0154,-0.0112,-0.0112,-0.0111,-0.0111,0,0.0415,0.0428,0.0454,0.0511,0.0554,0.0601,0.0653,0.0697,0.0724,0.076,0.0801,0.0782,0.0604,0.0441,0.0192,0.0068,-0.0078,-0.0107,-0.013,-0.0093,-0.0073,-0.0091,-0.009,-0.0107,-0.0108,-0.0108,-0.0108,-0.0108,0.0445,0.047,0.051,0.0563,0.0615,0.0685,0.0734,0.08,0.0875,0.0932,0.092,0.0894,0.071,0.04,0.019,-0.0045,-0.0044,-0.0133,-0.0134,-0.0134,-0.0109,-0.009,-0.0123,-0.0124,-0.0124,-0.0124,-0.0125,0,0.048,0.0509,0.056,0.0623,0.0682,0.0704,0.0802,0.0857,0.0956,0.1005,0.1037,0.0867,0.0689,0.0455,0.0122,-0.0073,-0.0096,-0.0145,-0.0126,-0.0127,-0.0128,-0.0103,-0.0116,-0.0117,-0.0117,-0.0118,0,0,0.0501,0.055,0.0572,0.0668,0.0715,0.0799,0.0856,0.0944,0.1002,0.1055,0.1042,0.1018,0.0756,0.0517,0.0262,0.0068,0.0007,0.0025,0.0044,0.0096,0.0097,-0.0091,-0.0048,0,0,0,0,0]}],[{"header":{"parameterUnit":"m.s-1","parameterCategory":2,"la1":30.2991,"la2":30.254,"lo1":-89.0895,"lo2":-89.0444,"dy":0.0017,"dx":0.0017,"nx":28,"ny":28,"refTime":"2023-09-29T03:00:00:Z","depth":"4","parameterNumber":2,"parameterNumberName":"U-component_of_CURRENTS"},"data":[0,0,0,0,0,0,0,0,0,0,0,0,0,0,0,0,0,0,0,0,0,0,0,0,0,0,0,0,0,0,0,0,0,0,0,0,0,0,0,0,0,0,0,0,0,0,0,0,0,0,0,0,0,0,0,0,0,0,0.1413,0.1413,0,0.1433,0.1434,0.1434,0.1466,0.1467,0.1468,0.1468,0.1507,0.1508,0.1508,0,0,0,0,0,0,0,0,0,0,0,0,0,0.1381,0.1382,0.1413,0.1413,0.1414,0.1433,0.1434,0.1434,0.1466,0.1467,0.1468,0.1469,0.1507,0.1508,0.1508,0,0,0,0,0,0,0,0,0,0,0,0,0,0.1396,0.1382,0.1413,0.1434,0.1436,0.1433,0.1434,0.1434,0.1466,0.1467,0.1468,0.1469,0.1507,0.1508,0.1508,0.1488,0,0,0.151,0.151,0,0,0,0,0,0,0,0,0.1395,0.1397,0.143,0.1432,0.1435,0.145,0.1437,0.1454,0.1465,0.1452,0.1468,0.147,0.149,0.1492,0.1491,0.149,0.1492,0.151,0.151,0.151,0.151,0,0,0,0,0,0,0,0.1394,0.1396,0.1419,0.1431,0.1433,0.1435,0.1438,0.144,0.1464,0.1454,0.1457,0.1461,0.1492,0.149,0.1492,0.1492,0.151,0.151,0.151,0.1511,0.1578,0.1579,0,0,0,0,0,0,0.1395,0.1395,0.1419,0.142,0.142,0.1435,0.1439,0.1442,0.1463,0.1468,0.146,0.1463,0.1489,0.1491,0.1493,0.1557,0.151,0.1511,0.1511,0.1576,0.1578,0.158,0,0,0,0,0,0,0.1394,0.1397,0.1418,0.141,0.1413,0.1435,0.1439,0.1442,0.1474,0.1469,0.1473,0.1492,0.149,0.1493,0.1525,0.1555,0.1511,0.1511,0.1574,0.1577,0.1579,0.1629,0,0,0,0,0,0,0.1393,0.1397,0.1415,0.141,0.1413,0.1438,0.1438,0.1442,0.1474,0.1478,0.1497,0.15,0.1491,0.1525,0.1526,0.1555,0.1512,0.1573,0.1575,0.1578,0.1625,0.1632,0.1638,0,0,0,0,0,0.1392,0.1405,0.1415,0.1419,0.1432,0.1439,0.1441,0.1459,0.1475,0.1491,0.1509,0.1501,0.1544,0.1526,0.1527,0.1557,0.1571,0.1575,0.1578,0.1622,0.1631,0.1638,0,0,0,0,0,0,0.14,0.1409,0.1421,0.1437,0.1449,0.1446,0.1466,0.1477,0.1502,0.1518,0.1514,0.1518,0.1559,0.1552,0.1533,0.1586,0.1558,0.1562,0.1592,0.16,0.1606,0.1608,0.1512,0,0,0,0,0,0.1409,0.1426,0.1432,0.1449,0.1459,0.147,0.1482,0.1494,0.1508,0.1522,0.1534,0.1551,0.1567,0.158,0.159,0.1614,0.1613,0.1637,0.1644,0.1649,0.1653,0.1678,0.1686,0.159,0.159,0.159,0,0,0.1418,0.1427,0.1437,0.1454,0.1466,0.148,0.1481,0.1508,0.1528,0.1521,0.1564,0.1577,0.158,0.161,0.1628,0.1613,0.1678,0.1653,0.1658,0.1659,0.1682,0.1691,0.1699,0.1593,0.1592,0.1592,0,0,0.1429,0.1452,0.1467,0.148,0.1507,0.1511,0.1527,0.1544,0.1567,0.16,0.1605,0.1638,0.1659,0.1666,0.1671,0.1721,0.1714,0.1732,0.1766,0.179,0.1798,0.1805,0.1822,0.183,0.1734,0.1735,0.1735,0,0.1444,0.1459,0.1474,0.1489,0.1506,0.1529,0.1547,0.1566,0.1596,0.1616,0.1626,0.1674,0.1682,0.1714,0.1737,0.1735,0.1748,0.1733,0.1798,0.1805,0.1811,0.1827,0.1835,0.1737,0.1737,0.1737,0.1737,0,0.1454,0.148,0.1492,0.152,0.1538,0.1562,0.1584,0.1618,0.1651,0.1667,0.1721,0.1735,0.1764,0.1776,0.1773,0.1824,0.1819,0.1804,0.1775,0.1824,0.1837,0.1845,0.1741,0.174,0.174,0.1739,0,0,0.1444,0.1491,0.1499,0.1521,0.156,0.1572,0.1615,0.1651,0.169,0.1727,0.1771,0.1807,0.1828,0.1836,0.1843,0.1867,0.1926,0.1863,0.1863,0.1875,0.1984,0.187,0.1867,0.1927,0.1929,0.193,0.1978,0,0.1452,0.1487,0.1509,0.155,0.1568,0.1606,0.164,0.1681,0.1725,0.1775,0.1804,0.1853,0.1846,0.1878,0.1901,0.1923,0.1948,0.1914,0.194,0.194,0.1828,0.1872,0.1935,0.1984,0.1985,0.1987,0.1987,0,0.1446,0.1475,0.1514,0.1569,0.1582,0.1615,0.1682,0.1719,0.1787,0.1824,0.1874,0.1902,0.1954,0.1941,0.1996,0.198,0.1992,0.1999,0.2001,0.1879,0.1839,0.1924,0.2001,0.2,0.1999,0.1998,0.1997,0,0.1417,0.1475,0.1511,0.1529,0.1592,0.1629,0.1674,0.1742,0.1777,0.187,0.1903,0.1964,0.2003,0.2031,0.2054,0.204,0.2104,0.2079,0.1983,0.1975,0.2041,0.2033,0.2116,0.2116,0.2116,0.2115,0.2115,0,0.1395,0.1428,0.151,0.1526,0.1578,0.1632,0.1695,0.1749,0.1824,0.1866,0.1935,0.1966,0.2032,0.2068,0.208,0.2052,0.2125,0.1994,0.198,0.2062,0.2056,0.2046,0.2038,0.2117,0.2117,0.2116,0.2116,0,0.1345,0.1399,0.1446,0.1532,0.1563,0.1604,0.1694,0.1731,0.1818,0.1876,0.1908,0.1987,0.2038,0.2079,0.2132,0.2069,0.2068,0.2041,0.2136,0.2126,0.1918,0.1911,0.1932,0.1928,0.1925,0.1923,0.192,0,0.1317,0.134,0.1439,0.147,0.1515,0.1585,0.1623,0.1718,0.1751,0.1869,0.1878,0.1967,0.2008,0.1971,0.2041,0.205,0.2025,0.2005,0.1947,0.1915,0.19,0.1898,0.1896,0.1916,0.1915,0.1914,0.1913,0,0.1265,0.1317,0.1357,0.1421,0.1473,0.1513,0.1582,0.1589,0.1694,0.1785,0.1798,0.182,0.1868,0.1897,0.1917,0.1921,0.2005,0.1972,0.1977,0.1923,0.1896,0.1883,0.1885,0.1903,0.1904,0.1905,0.1906,0,0.1233,0.1248,0.1312,0.1352,0.1413,0.1422,0.1467,0.1496,0.1533,0.1654,0.1664,0.1757,0.185,0.1832,0.1858,0.1849,0.1817,0.1743,0.176,0.1772,0.1698,0.1639,0.1559,0,0,0,0,0,0.1189,0.1195,0.1233,0.1264,0.1319,0.1352,0.1425,0.1469,0.1567,0.153,0.1587,0.1626,0.1652,0.1703,0.1663,0.1808,0.1838,0.1754,0.1765,0.1843,0.1856,0.1784,0,0,0,0,0,0,0.1159,0.1196,0.1202,0.118,0.1186,0.1227,0.127,0.1339,0.1317,0.1426,0.1442,0.1528,0.1577,0.1657,0.1631,0.1649,0.1621,0.1819,0.1815,0.1836,0.1848,0.1857,0.1788,0,0,0,0,0]},{"header":{"parameterUnit":"m.s-1","parameterCategory":2,"la1":30.2991,"la2":30.254,"lo1":-89.0895,"lo2":-89.0444,"dy":0.0017,"dx":0.0017,"nx":28,"ny":28,"refTime":"2023-09-29T03:00:00:Z","depth":"4","parameterNumber":3,"parameterNumberName":"V-component_of_CURRENTS"},"data":[0,0,0,0,0,0,0,0,0,0,0,0,0,0,0,0,0,0,0,0,0,0,0,0,0,0,0,0,0,0,0,0,0,0,0,0,0,0,0,0,0,0,0,0,0,0,0,0,0,0,0,0,0,0,0,0,0,0,0.0168,0.0168,0,0.0145,0.0145,0.0145,0.0131,0.0131,0.0131,0.0131,0.0097,0.0096,0.0095,0,0,0,0,0,0,0,0,0,0,0,0,0,0.0176,0.0176,0.0168,0.0168,0.0167,0.0145,0.0145,0.0145,0.0131,0.0131,0.0131,0.0131,0.0097,0.0096,0.0095,0,0,0,0,0,0,0,0,0,0,0,0,0,0.0165,0.0176,0.0168,0.0158,0.0157,0.0145,0.0145,0.0145,0.0131,0.0131,0.0131,0.0131,0.0097,0.0096,0.0095,0.0087,0,0,0.0091,0.009,0,0,0,0,0,0,0,0,0.0165,0.0164,0.016,0.0159,0.0158,0.0142,0.0135,0.0125,0.0131,0.0141,0.0131,0.0131,0.0111,0.0108,0.0104,0.0085,0.0084,0.009,0.009,0.0089,0.0089,0,0,0,0,0,0,0,0.0166,0.0165,0.0159,0.016,0.0158,0.0147,0.0146,0.0133,0.0126,0.014,0.0139,0.0137,0.011,0.0105,0.0103,0.0083,0.009,0.0089,0.0088,0.0088,0.0059,0.0059,0,0,0,0,0,0,0.0171,0.0166,0.0159,0.0158,0.0162,0.0147,0.0146,0.0146,0.0126,0.0123,0.0137,0.0137,0.0107,0.0104,0.0102,0.0101,0.0089,0.0088,0.0087,0.0059,0.0059,0.0059,0,0,0,0,0,0,0.0171,0.0171,0.016,0.0162,0.0159,0.0147,0.0148,0.0146,0.0144,0.0124,0.0121,0.0138,0.0107,0.0103,0.0096,0.0099,0.0087,0.0086,0.0059,0.0059,0.0059,0.0093,0,0,0,0,0,0,0.0172,0.0171,0.0175,0.0162,0.016,0.0157,0.0148,0.0146,0.0143,0.0142,0.0124,0.012,0.0107,0.0098,0.0094,0.0097,0.0085,0.0059,0.0059,0.0059,0.0092,0.0094,0.0097,0,0,0,0,0,0.0172,0.0178,0.0175,0.0175,0.0165,0.0157,0.0155,0.0146,0.0143,0.0144,0.0133,0.0121,0.0096,0.0097,0.0093,0.0095,0.0059,0.0059,0.0059,0.0091,0.0094,0.0096,0,0,0,0,0,0,0.0182,0.0176,0.0174,0.0177,0.017,0.0155,0.0156,0.0149,0.0141,0.0142,0.0123,0.0119,0.0113,0.0099,0.01,0.0086,0.0075,0.0074,0.01,0.0103,0.0105,0.0117,0.0084,0,0,0,0,0,0.0187,0.0191,0.0181,0.0184,0.0182,0.017,0.0167,0.0161,0.0151,0.0147,0.0134,0.012,0.0109,0.0103,0.009,0.0083,0.0067,0.0081,0.0083,0.0085,0.0092,0.0068,0.0069,0.006,0.006,0.006,0,0,0.0191,0.0189,0.0191,0.0187,0.0181,0.0183,0.0168,0.0166,0.0169,0.0145,0.0144,0.0128,0.011,0.0103,0.0099,0.0092,0.0078,0.0085,0.0087,0.0093,0.0069,0.007,0.007,0.006,0.006,0.006,0,0,0.0204,0.0201,0.0209,0.0206,0.0201,0.0194,0.0196,0.0184,0.018,0.0175,0.0161,0.0147,0.0129,0.0117,0.0109,0.0115,0.0092,0.0109,0.013,0.0107,0.0108,0.0108,0.0087,0.0085,0.0109,0.0109,0.0109,0,0.021,0.0219,0.021,0.0216,0.0219,0.0202,0.0213,0.0206,0.0192,0.0192,0.018,0.0155,0.0136,0.0132,0.0133,0.012,0.0105,0.0123,0.0111,0.0111,0.0111,0.0088,0.0086,0.0111,0.0111,0.0111,0.011,0,0.0227,0.0236,0.024,0.0246,0.0247,0.0251,0.0243,0.0242,0.0233,0.0224,0.0216,0.0188,0.0173,0.0162,0.015,0.0142,0.0131,0.0118,0.0106,0.0114,0.009,0.0087,0.0113,0.0113,0.0112,0.0112,0,0,0.0242,0.0251,0.0254,0.0265,0.0264,0.0268,0.0275,0.0277,0.0286,0.0262,0.0267,0.0238,0.0221,0.021,0.0188,0.0166,0.0147,0.0146,0.0144,0.0129,0.0099,0.0089,0.0085,0.0133,0.0133,0.0133,0.0082,0,0.0261,0.0282,0.0282,0.0305,0.0317,0.031,0.0321,0.032,0.0313,0.0311,0.0278,0.0273,0.024,0.0235,0.0208,0.0168,0.0141,0.0162,0.009,0.0088,0.0082,0.0082,0.0132,0.008,0.0079,0.0079,0.0078,0,0.0281,0.0294,0.0322,0.0343,0.0349,0.0362,0.0381,0.0388,0.038,0.0374,0.0356,0.0329,0.0299,0.0267,0.0197,0.0213,0.016,0.0122,0.0119,0.0098,0.0073,0.007,0.0073,0.0073,0.0074,0.0074,0.0074,0,0.0303,0.0324,0.0351,0.0356,0.0375,0.0392,0.0404,0.0409,0.0426,0.0416,0.042,0.0376,0.0359,0.0289,0.0207,0.0202,0.0127,0.0107,0.0046,0.0044,0.0053,0.0053,0.0052,0.0052,0.0052,0.0052,0.0052,0,0.0323,0.0345,0.0365,0.038,0.0419,0.0422,0.0462,0.0467,0.048,0.0504,0.0456,0.0459,0.0365,0.0308,0.0225,0.0131,0.0136,0.0052,0.0032,0.0068,0.007,0.0051,0.0052,0.005,0.005,0.0051,0.0051,0,0.0341,0.0354,0.0387,0.0416,0.0432,0.046,0.0505,0.0531,0.0538,0.0566,0.0566,0.0524,0.0451,0.0348,0.0237,0.016,0.0067,0.0029,0.0082,0.0065,-0.0007,-0.0004,-0.0045,-0.0046,-0.0046,-0.0047,-0.0047,0,0.035,0.037,0.0416,0.0443,0.046,0.0503,0.0538,0.0562,0.0592,0.0607,0.0624,0.0566,0.0521,0.0362,0.0248,0.0085,0.0056,0.0001,-0.0012,-0.0001,-0.0017,-0.0013,-0.0009,-0.0048,-0.0048,-0.0049,-0.0049,0,0.0367,0.0387,0.0414,0.0471,0.0515,0.0562,0.0612,0.0638,0.0668,0.0675,0.0669,0.0584,0.0501,0.037,0.0243,0.0125,0.0035,-0.0006,-0.0006,-0.0019,-0.0006,-0.002,-0.0016,-0.0051,-0.0051,-0.005,-0.005,0,0.0383,0.0404,0.0446,0.0494,0.0551,0.0605,0.0629,0.0664,0.0694,0.0707,0.0707,0.0613,0.0565,0.0391,0.0278,0.0158,0.0118,0.0067,0.0063,0.0063,0.0105,0.0137,0.0122,0,0,0,0,0,0.0394,0.042,0.0465,0.052,0.0575,0.061,0.0673,0.0692,0.0722,0.0724,0.0716,0.0638,0.0472,0.0407,0.0285,0.0251,0.0089,0.0101,0.0026,-0.0063,-0.0061,-0.0032,0,0,0,0,0,0,0.0402,0.0444,0.0464,0.0532,0.057,0.0637,0.0678,0.0699,0.07,0.0711,0.0629,0.0594,0.0437,0.0541,0.0279,0.0244,0.0175,0.0029,0.0026,-0.0065,-0.0062,-0.006,-0.003,0,0,0,0,0]}]]